Погода в Мандреме

Индия     15°32′45″N   73°47′08″E
темп.,
°C
ветер,
м/с
пор.,
м/с
влажн.,
%
обл.,
%
осадки,
мм/ч
давл.,
гПа
погр.,
м
14 мая, пт
пт1423:30+30зсз127195 0.2 1005406
02:30+28в227582 0.0 1004244
05:30+28юв3480100 0.5 1003335
08:30+29всв1179100 0.0 1004323
11:30+30зсз447411 0.0 1003604
14:30+30з8873100 0.1 1000425
17:30+30зсз5573100 0.8 1000585
20:30+29сз3476100 0.3 1002438
15 мая, сб
сб1523:30+29всв2376100 1.1 1002171
02:30+28св3377100 0.4 998299
05:30+28юв2278100 1.0 100097
08:30+29в5969100 0.3 1000595
11:30+31вюв6963100 0.3 9991007
14:30+33вюв81153100 0.0 996785
17:30+27юв91581100 3.3 998984
20:30+29юв61070100 1.4 999850
16 мая, вс
вс1623:30+29вюв81264100 1.4 10001287
02:30+27юв132076100 4.8 9961349
05:30+26юв111788100 21.7 9971236
08:30+27ююв152190100 40.2 9991438
11:30+28ю172285100 44.4 9991615
14:30+27ю151986100 4.7 9991212
17:30+28ю141784100 11.1 9991204
20:30+28ю141885100 16.6 10021225
17 мая, пн
пн1723:30+28ю141784100 21.8 10021074
02:30+28ююз121579100 3.3 10011316
05:30+29ю111477100 6.2 10021308
08:30+29ю111377100 2.1 10051284
11:30+29ю11127799 4.2 10051142
14:30+29ю9117751 2.1 10041057
17:30+28ю9118198 3.8 1004860
20:30+29ю898199 1.1 1005786
18 мая, вт
вт1823:30+28ю8108046 2.9 1006827
02:30+28ю7979100 1.6 1003822
05:30+28ю5780100 5.2 1005575
08:30+29ююв777549 0.5 1006963
11:30+29ю7775100 0.7 1007921
14:30+29ююз667495 0.5 1005804
17:30+28ю56799 5.6 1005532
20:30+28юз358027 6.9 1007387